Location: �terpigny
(49.8910°N, 2.9249°E)
Time: 06:16:02
(UTC+00:00)

CUTE 1.7 + AOD 2 - Pass Details

Date: 04 July 2022
Orbit: 589 x 608 km, 97.7° (Epoch: 09 August)

Event Time Altitude Azimuth Distance (km) Brightness Sun altitude
Rises 02:37:49 0° 27° (NNE) 2,851 ? -8.5°
Reaches altitude 10° 02:40:40 10° 48° (NE) 1,939 ? -8.3°
Maximum altitude 02:43:28 17° 90° (E) 1,518 ? -8.0°
Drops below altitude 10° 02:46:14 10° 132° (SE) 1,921 ? -7.7°
Sets 02:49:02 0° 152° (SSE) 2,814 ? -7.4°
